CW5404 Weather Reports


time (UTC)temp
F
wind
direction
speed
knots
gust
knots
rain 1hr
in
rain 24hr
in
rain mn
in
humidity
%
barometer
mb
20260507063931 51 235 0.0 0.0 0.00 0.00 0.00 87 1020.7
20260507063430 51 235 0.0 0.0 0.00 0.00 0.00 87 1020.7
20260507062900 51 235 0.0 0.0 0.00 0.00 0.00 86 1020.7
20260507062400 51 235 0.0 0.0 0.00 0.00 0.00 86 1020.7
20260507061931 51 235 0.0 0.0 0.00 0.00 0.00 86 1020.7
20260507061400 51 235 0.0 0.0 0.00 0.00 0.00 85 1020.7
20260507060400 51 235 0.0 0.0 0.00 0.00 0.00 84 1020.7
20260507055900 51 235 0.0 0.9 0.00 0.00 0.00 84 1020.7
20260507055430 52 235 0.0 0.9 0.00 0.00 0.00 83 1020.6
20260507054900 52 234 0.9 0.9 0.00 0.00 0.00 83 1020.6
20260507054430 52 234 0.0 0.0 0.00 0.00 0.00 83 1020.6
20260507053930 52 235 0.0 0.0 0.00 0.00 0.00 83 1020.6
20260507053400 52 360 0.0 0.0 0.00 0.00 0.00 82 1020.6
20260507052930 52 360 0.0 0.0 0.00 0.00 0.00 82 1020.6
20260507052430 53 360 0.0 0.0 0.00 0.00 0.00 82 1020.5
20260507051400 53 360 0.0 0.0 0.00 0.00 0.00 82 1020.5
20260507050900 53 235 0.0 1.7 0.00 0.00 0.00 82 1020.4
20260507045900 53 360 0.0 1.7 0.00 0.00 0.00 82 1020.4
20260507044930 53 360 0.0 0.9 0.00 0.00 0.00 82 1020.3
20260507043930 54 360 0.0 2.6 0.00 0.00 0.00 81 1020.3
20260507043400 54 360 0.0 2.6 0.00 0.00 0.00 81 1020.3
20260507042430 54 360 0.0 0.9 0.00 0.00 0.00 81 1020.2
20260507041930 54 360 0.0 0.9 0.00 0.00 0.00 80 1020.2
20260507041430 54 360 0.0 0.9 0.00 0.00 0.00 80 1020.2
20260507040930 54 360 0.0 0.9 0.00 0.00 0.00 80 1019.9
20260507040430 54 360 0.0 0.0 0.00 0.00 0.00 79 1019.9
20260507035930 55 360 0.0 0.0 0.00 0.00 0.00 79 1019.9
20260507035400 55 360 0.0 0.9 0.00 0.00 0.00 79 1019.8
20260507034900 55 360 0.0 0.9 0.00 0.00 0.00 78 1019.8
20260507034430 55 360 0.0 0.9 0.00 0.00 0.00 78 1019.8
20260507033900 56 360 0.0 0.0 0.00 0.00 0.00 78 1019.7
20260507032930 56 250 0.0 1.7 0.00 0.00 0.00 77 1019.7
20260507032430 56 250 0.0 1.7 0.00 0.00 0.00 77 1019.6
20260507031930 57 73 0.0 0.0 0.00 0.00 0.00 77 1019.6
20260507031430 57 71 0.0 0.0 0.00 0.00 0.00 76 1019.6
20260507030930 57 71 0.0 0.9 0.00 0.00 0.00 76 1019.5
20260507030400 57 70 0.0 0.9 0.00 0.00 0.00 76 1019.5
20260507025900 58 223 0.0 0.0 0.00 0.00 0.00 75 1019.5
20260507024930 58 223 0.0 0.0 0.00 0.00 0.00 74 1019.3
20260507024430 59 223 0.0 0.9 0.00 0.00 0.00 74 1019.3
20260507023900 59 223 0.0 0.9 0.00 0.00 0.00 73 1019.3
20260507022929 60 223 0.0 0.9 0.00 0.00 0.00 72 1019.3
20260507022400 60 298 0.0 0.9 0.00 0.00 0.00 72 1019.3
20260507021929 60 355 0.0 0.9 0.00 0.00 0.00 72 1019.3
20260507021430 61 320 0.0 1.7 0.00 0.00 0.00 71 1019.3
20260507020859 61 320 0.0 1.7 0.00 0.00 0.00 71 1019.3
20260507020359 61 119 0.0 2.6 0.00 0.00 0.00 70 1019.3
20260507015930 61 119 0.0 2.6 0.00 0.00 0.00 69 1019.3
20260507015359 62 98 0.0 1.7 0.00 0.00 0.00 69 1019.3
20260507014859 62 84 0.0 1.7 0.00 0.00 0.00 68 1019.3
20260507013859 63 125 0.0 2.6 0.00 0.00 0.00 68 1019.3
20260507013430 63 122 0.0 2.6 0.00 0.00 0.00 67 1019.3
20260507012930 63 127 0.9 4.3 0.00 0.00 0.00 67 1019.3
20260507012430 64 72 2.6 4.3 0.00 0.00 0.00 66 1019.2
20260507011859 64 102 0.9 2.6 0.00 0.00 0.00 66 1019.2
20260507011400 64 100 0.0 2.6 0.00 0.00 0.00 66 1019.2
20260507010859 65 114 0.9 1.7 0.00 0.00 0.00 65 1019.4
20260507010359 65 256 1.7 2.6 0.00 0.00 0.00 65 1019.4
20260507005929 65 298 0.0 2.6 0.00 0.00 0.00 63 1019.4
20260507005359 66 206 0.0 3.5 0.00 0.00 0.00 63 1019.3
20260507004930 66 328 0.0 3.5 0.00 0.00 0.00 63 1019.3
20260507004429 66 51 0.9 6.1 0.00 0.00 0.00 63 1019.3
20260507003929 66 332 1.7 6.1 0.00 0.00 0.00 63 1019.3
20260507003359 67 253 0.0 3.5 0.00 0.00 0.00 61 1019.3
20260507002429 68 33 0.9 2.6 0.00 0.00 0.00 61 1019.3
20260507001929 68 153 0.0 1.7 0.00 0.00 0.00 61 1019.3
20260507001429 68 155 0.0 2.6 0.00 0.00 0.00 60 1019.3
20260507000859 68 69 1.7 4.3 0.00 0.00 0.00 61 1019.3
20260507000429 68 71 2.6 4.3 0.00 0.00 0.00 62 1019.3
20260506235929 68 51 0.0 2.6 0.00 0.00 0.00 62 1019.3
20260506235429 68 49 0.9 2.6 0.00 0.00 0.00 62 1019.2
20260506234929 68 89 0.0 2.6 0.00 0.00 0.00 60 1019.2
20260506234429 69 42 0.0 6.1 0.00 0.00 0.00 61 1019.2
20260506233929 69 53 1.7 6.1 0.00 0.00 0.00 59 1019.2
20260506233429 69 61 0.0 3.5 0.00 0.00 0.00 59 1019.2
20260506232429 69 126 0.0 2.6 0.00 0.00 0.00 60 1019.3
20260506231929 69 263 0.9 6.1 0.00 0.00 0.00 60 1019.3
20260506231430 69 242 0.0 6.1 0.00 0.00 0.00 59 1019.3
20260506230929 69 20 0.9 5.2 0.00 0.00 0.00 61 1019.3
20260506230429 69 294 1.7 6.1 0.00 0.00 0.00 61 1019.3
20260506225929 69 59 0.0 6.1 0.00 0.00 0.00 62 1019.3
20260506225429 69 69 6.1 6.1 0.00 0.00 0.00 60 1019.4
20260506224428 69 153 0.9 6.1 0.00 0.00 0.00 61 1019.4
20260506223858 69 34 0.9 6.1 0.00 0.00 0.00 60 1019.5
20260506223428 69 26 0.0 4.3 0.00 0.00 0.00 65 1019.5
20260506222428 68 98 0.9 7.0 0.00 0.00 0.00 63 1019.7
20260506221928 69 46 2.6 5.2 0.00 0.00 0.00 63 1019.7
20260506221429 69 360 0.9 4.3 0.00 0.00 0.00 61 1019.7
20260506220928 68 61 0.9 4.3 0.00 0.00 0.00 61 1019.7
20260506220428 68 50 0.0 4.3 0.00 0.00 0.00 65 1019.7
20260506215928 68 28 2.6 4.3 0.00 0.00 0.00 61 1019.7
20260506215358 69 53 1.7 4.3 0.00 0.00 0.00 64 1019.7
20260506213858 68 55 1.7 6.1 0.00 0.00 0.00 63 1019.8
20260506213428 68 126 0.0 5.2 0.00 0.00 0.00 64 1019.8
20260506212928 68 207 4.3 5.2 0.00 0.00 0.00 63 1019.8
20260506211428 68 97 1.7 4.3 0.00 0.00 0.00 64 1019.8
20260506210928 68 111 3.5 4.3 0.00 0.00 0.00 64 1019.9
20260506210358 68 107 1.7 3.5 0.00 0.00 0.00 65 1019.9
20260506205928 67 236 0.0 4.3 0.00 0.00 0.00 69 1019.9
20260506205428 66 171 0.9 5.2 0.00 0.00 0.00 65 1020.0
20260506204928 67 40 0.9 7.0 0.00 0.00 0.00 65 1020.0
20260506204428 67 93 4.3 7.0 0.00 0.00 0.00 65 1020.0
20260506203928 67 32 0.0 3.5 0.00 0.00 0.00 68 1020.1
20260506203428 66 76 0.0 3.5 0.00 0.00 0.00 68 1020.1
20260506202928 66 264 0.0 4.3 0.00 0.00 0.00 67 1020.1
20260506202428 66 234 1.7 4.3 0.00 0.00 0.00 66 1020.2
20260506201927 66 46 0.0 3.5 0.00 0.00 0.00 66 1020.2
20260506201427 66 38 0.9 3.5 0.00 0.00 0.00 65 1020.2
20260506200927 66 340 0.0 3.5 0.00 0.00 0.00 66 1020.2
20260506200428 66 80 0.0 5.2 0.00 0.00 0.00 65 1020.2
20260506195928 66 109 1.7 5.2 0.00 0.00 0.00 65 1020.2
20260506194427 67 215 2.6 2.6 0.00 0.00 0.00 64 1020.2
20260506193357 66 217 1.7 5.2 0.00 0.00 0.00 65 1020.3
20260506192927 66 223 0.9 4.3 0.00 0.00 0.00 65 1020.3
20260506192428 66 213 2.6 4.3 0.00 0.00 0.00 65 1020.3
20260506191427 66 11 0.0 5.2 0.00 0.00 0.00 71 1020.3
20260506190927 64 220 3.5 5.2 0.00 0.00 0.00 69 1020.2
20260506190428 64 215 1.7 5.2 0.00 0.00 0.00 69 1020.2
20260506185428 64 355 1.7 5.2 0.00 0.00 0.00 71 1020.3
20260506184928 64 176 4.3 5.2 0.00 0.00 0.00 70 1020.3
20260506184427 63 223 0.9 4.3 0.00 0.00 0.00 71 1020.3
20260506183927 63 319 1.7 6.1 0.00 0.00 0.00 72 1020.4
20260506182928 64 210 2.6 6.1 0.00 0.00 0.00 72 1020.4
20260506182358 64 207 1.7 6.1 0.00 0.00 0.00 69 1020.4
20260506181927 64 171 0.9 4.3 0.00 0.00 0.00 71 1020.4
20260506181427 63 286 1.7 2.6 0.00 0.00 0.00 72 1020.4
20260506180428 62 194 0.9 3.5 0.00 0.00 0.00 73 1020.3
20260506175928 62 61 0.0 4.3 0.00 0.00 0.00 73 1020.3
20260506175428 62 55 1.7 4.3 0.00 0.00 0.00 72 1020.3
20260506174927 62 107 0.0 3.5 0.00 0.00 0.00 72 1020.3
20260506174428 62 107 0.0 4.3 0.00 0.00 0.00 72 1020.3
20260506173927 62 163 2.6 4.3 0.00 0.00 0.00 73 1020.1
20260506173427 61 163 0.9 5.2 0.00 0.00 0.00 74 1020.1
20260506172928 61 178 1.7 5.2 0.00 0.00 0.00 75 1020.1
20260506172428 61 217 0.0 4.3 0.00 0.00 0.00 75 1020.5
20260506171927 60 257 0.9 4.3 0.00 0.00 0.00 75 1020.4
20260506170927 60 257 0.0 3.5 0.00 0.00 0.00 75 1020.3
20260506170427 60 215 0.0 3.5 0.00 0.00 0.00 76 1020.3
20260506165427 60 203 2.6 4.3 0.00 0.00 0.00 79 1020.4
20260506164927 59 202 2.6 3.5 0.00 0.00 0.00 78 1020.4
20260506164427 59 213 0.0 3.5 0.00 0.00 0.00 82 1020.4
20260506163927 58 232 1.7 2.6 0.00 0.00 0.00 84 1020.6
20260506163427 58 207 0.0 2.6 0.00 0.00 0.00 85 1020.6
20260506162927 57 202 0.0 1.7 0.00 0.00 0.00 86 1020.6
20260506162427 57 169 0.0 1.7 0.00 0.00 0.00 87 1020.4
20260506161927 57 101 0.0 1.7 0.00 0.00 0.00 89 1020.4
20260506161427 56 189 0.0 1.7 0.00 0.00 0.00 91 1020.4
20260506160927 55 136 0.0 1.7 0.00 0.00 0.00 92 1020.2
20260506155857 55 360 0.0 1.7 0.00 0.00 0.00 94 1020.2
20260506155427 54 360 0.0 3.5 0.00 0.00 0.00 95 1019.8
20260506154926 54 360 1.7 3.5 0.00 0.00 0.00 94 1019.8
20260506154426 54 360 0.9 3.5 0.00 0.00 0.00 95 1019.8
20260506153927 54 360 0.9 2.6 0.00 0.00 0.00 95 1020.3
20260506153427 54 360 0.0 0.0 0.00 0.00 0.00 94 1020.3
20260506152926 54 360 0.0 0.0 0.00 0.00 0.00 94 1020.3
20260506152426 54 360 0.0 0.9 0.00 0.00 0.00 93 1020.4
20260506151927 54 360 0.0 1.7 0.00 0.00 0.00 93 1020.4
20260506150926 54 360 0.0 0.0 0.00 0.00 0.00 93 1020.4
20260506150427 54 360 0.0 0.0 0.00 0.00 0.00 92 1020.4
20260506144857 54 360 0.0 0.0 0.00 0.00 0.00 93 1020.6
20260506144426 54 360 0.0 0.0 0.00 0.00 0.00 93 1020.6
20260506143426 53 360 0.0 0.0 0.00 0.00 0.00 93 1020.0
20260506142927 53 360 0.0 0.0 0.00 0.00 0.00 93 1020.0
20260506142428 53 360 0.0 0.9 0.00 0.00 0.00 93 1019.8
20260506141927 53 360 0.0 0.9 0.00 0.00 0.00 93 1019.8
20260506140927 53 360 0.0 1.7 0.00 0.00 0.00 94 1019.5
20260506135857 53 360 0.0 0.9 0.00 0.00 0.00 94 1019.5
20260506134927 53 360 0.9 0.9 0.00 0.00 0.00 95 1019.4
20260506133926 53 360 0.0 0.0 0.00 0.00 0.00 95 1019.4
20260506131426 53 360 0.0 0.0 0.00 0.00 0.00 96 1019.4
20260506130926 53 154 0.0 0.0 0.00 0.00 0.00 96 1019.2
20260506125926 53 360 0.0 0.0 0.00 0.00 0.00 96 1019.2
20260506125426 53 360 0.0 0.0 0.00 0.00 0.00 96 1019.1
20260506124856 52 360 0.0 0.0 0.00 0.00 0.00 96 1019.1
20260506124426 52 142 0.0 0.0 0.00 0.00 0.00 96 1019.1
20260506123926 52 142 0.0 0.0 0.00 0.00 0.00 96 1019.2
20260506123426 52 142 0.0 0.0 0.00 0.00 0.00 95 1019.2
20260506122856 52 142 0.0 0.0 0.00 0.00 0.00 95 1019.2
20260506122356 52 142 0.0 0.0 0.00 0.00 0.00 95 1019.2
20260506121426 52 142 0.0 0.0 0.00 0.00 0.00 96 1019.2
20260506120426 52 138 0.0 0.0 0.00 0.00 0.00 96 1019.0
20260506115926 52 138 0.0 0.0 0.00 0.00 0.00 96 1019.0
20260506115426 52 139 0.0 0.0 0.00 0.00 0.00 96 1018.9
20260506114926 52 360 0.0 0.0 0.00 0.00 0.00 96 1018.9
20260506113856 52 360 0.0 0.0 0.00 0.00 0.00 95 1018.8
20260506113426 52 360 0.0 0.0 0.00 0.00 0.00 95 1018.8
20260506112855 52 139 0.0 0.0 0.00 0.00 0.00 95 1018.8
20260506112425 52 139 0.0 0.0 0.00 0.00 0.00 95 1018.6
20260506111925 52 360 0.0 0.0 0.00 0.00 0.00 95 1018.6
20260506111425 52 360 0.0 0.0 0.00 0.00 0.00 95 1018.6
20260506110856 52 360 0.0 0.0 0.00 0.00 0.00 95 1018.4
20260506110356 52 360 0.0 0.0 0.00 0.00 0.00 95 1018.4
20260506105925 52 139 0.0 0.0 0.00 0.00 0.00 95 1018.4
20260506105427 52 360 0.0 0.0 0.00 0.00 0.00 95 1018.2
20260506104426 52 360 0.0 0.0 0.00 0.00 0.00 95 1018.2
20260506103926 52 360 0.0 0.0 0.00 0.00 0.00 95 1018.0
20260506102925 51 138 0.0 0.0 0.00 0.00 0.00 95 1018.0
20260506101925 51 360 0.0 0.0 0.00 0.00 0.00 95 1017.8
20260506101425 51 136 0.0 0.0 0.00 0.00 0.00 95 1017.8
20260506100925 51 360 0.0 0.0 0.00 0.00 0.00 94 1017.7
20260506100425 51 360 0.0 0.0 0.00 0.00 0.00 94 1017.7
20260506095925 51 360 0.0 0.0 0.00 0.00 0.00 94 1017.7
20260506095425 51 360 0.0 0.0 0.00 0.00 0.00 94 1017.6
20260506094925 51 360 0.0 0.0 0.00 0.00 0.00 94 1017.6
20260506094425 51 134 0.0 0.0 0.00 0.00 0.00 94 1017.6
20260506093925 52 135 0.0 0.0 0.00 0.00 0.00 94 1017.4
20260506093425 52 360 0.0 0.0 0.00 0.00 0.00 94 1017.4
20260506092925 51 360 0.0 0.0 0.00 0.00 0.00 93 1017.4
20260506091925 51 360 0.0 0.0 0.00 0.00 0.00 93 1017.3
20260506091425 51 360 0.0 0.0 0.00 0.00 0.00 93 1017.3
20260506090925 52 360 0.0 0.0 0.00 0.00 0.00 92 1017.3
20260506090425 52 360 0.0 0.0 0.00 0.00 0.00 92 1017.3
20260506085925 52 360 0.0 0.0 0.00 0.00 0.00 92 1017.3
20260506084425 52 360 0.0 0.0 0.00 0.00 0.00 91 1017.2
20260506083925 52 360 0.0 0.0 0.00 0.00 0.00 91 1017.2
20260506083424 52 360 0.0 0.0 0.00 0.00 0.00 90 1017.2
20260506081925 53 360 0.0 0.0 0.00 0.00 0.00 89 1017.1
20260506081425 53 360 0.0 0.0 0.00 0.00 0.00 89 1017.1
20260506080924 53 360 0.0 0.0 0.00 0.00 0.00 89 1017.1
20260506080425 53 360 0.0 0.0 0.00 0.00 0.00 88 1017.1
20260506072924 54 360 0.0 0.0 0.00 0.00 0.00 88 1017.1
20260506072424 54 360 0.0 0.0 0.00 0.00 0.00 87 1017.0
20260506071924 54 360 0.0 0.0 0.00 0.00 0.00 87 1017.0
20260506071424 55 360 0.0 0.0 0.00 0.00 0.00 87 1017.0
20260506070924 55 360 0.0 0.0 0.00 0.00 0.00 86 1016.8
20260506070424 55 360 0.0 0.0 0.00 0.00 0.00 86 1016.8